Location: Sungai Liu
(2.3667°N, 113.8667°E)
Time: 12:04:05
(UTC+00:00)

OAO 3 Rocket - Pass Details

Date: 20 May 2022
Orbit: 628 x 681 km, 35.0° (Epoch: 04 July)

Event Time Altitude Azimuth Distance (km) Brightness Sun altitude
Exits shadow 21:12:52 22° 272° (W) 1,406 4.3 -15.1°
Maximum altitude 21:15:23 39° 217° (SW) 968 3.6 -14.6°
Drops below altitude 10° 21:19:46 10° 149° (SSE) 2,021 5.8 -13.5°
Sets 21:22:14 0° 141° (SE) 2,922 6.8 -13.0°
